Regional Weather Roundup
Issued by NWS

Home | Current Version | Previous Version | Text Only | Print | Product List | Glossary On
Versions: 1 2 3 4 5 6 7 8 9 10 11 12 13 14 15 16 17 18 19 20 21 22 23 24 25 26 27 28
000
ASUS46 KPQR 180510
RWROR

OREGON REGIONAL WEATHER ROUNDUP
NATIONAL WEATHER SERVICE PORTLAND OR
900 PM PST SUN DEC 17 2017

NOTE: "FAIR" INDICATES FEW OR NO CLOUDS BELOW 12,000 FEET WITH
NO SIGNIFICANT WEATHER AND/OR OBSTRUCTIONS TO VISIBILITY.

ORZ001>013-180600-
NORTHWEST OREGON


CITY           SKY/WX    TMP DP  RH WIND       PRES   REMARKS
ASTORIA        LGT RAIN  49  47  93 S10       30.07F FOG
NEWPORT        CLOUDY    46  45  93 S6        30.20S
PORTLAND       CLOUDY    48  38  68 S10       30.15S
VANCOUVER WA   CLOUDY    47  39  74 SE3       30.14S
SCAPPOOSE      CLOUDY    42  41  96 CALM      30.14S
HILLSBORO      CLOUDY    43  40  89 CALM      30.13S
AURORA         CLOUDY    45  37  73 SW6       30.16F
MCMINNVILLE    CLOUDY    44  41  89 S5        30.15F
SALEM          CLOUDY    45  36  70 S8        30.15F
EUGENE         CLOUDY    34  33  96 S3        30.19S
$$

ORZ021-028-180600-
SOUTHWEST OREGON


CITY           SKY/WX    TMP DP  RH WIND       PRES   REMARKS
NORTH BEND     CLOUDY    42  41  96 SE8       30.22S
BROOKINGS      CLEAR     43  40  89 CALM      30.16S
ROSEBURG       PTCLDY    35  34  96 CALM      30.21S
SEXTON SUMMIT  PTCLDY    43  28  55 SE7       30.15S
GRANTS PASS    FAIR      30  30 100 CALM      30.26S
MEDFORD        PTCLDY    34  30  85 CALM      30.22R
$$

ORZ014>016-041-180600-
COLUMBIA GORGE


CITY           SKY/WX    TMP DP  RH WIND       PRES   REMARKS
TROUTDALE      CLOUDY    48  42  80 CALM      30.15F
HOOD RIVER     CLOUDY    46  37  71 W13G23    30.06F
THE DALLES     CLOUDY    39  36  89 VRB3      30.07F
$$

ORZ029>031-041-044-049-050-061>064-502-503-505>511-180600-
EASTERN OREGON


CITY           SKY/WX    TMP DP  RH WIND       PRES   REMARKS
MADRAS         NOT AVBL
REDMOND        CLOUDY    35  27  72 NE5       30.09R WCI  31
BEND           CLOUDY    37  27  65 SE3       30.09S
PRINEVILLE     CLOUDY    36  28  75 E3        30.11S
KLAMATH FALLS  MOCLDY    28  24  85 CALM      30.21F
LAKEVIEW       PTCLDY    21  19  92 NW7       30.23R WCI  12
HERMISTON      CLOUDY    45  35  68 S10       30.01F
PENDLETON      CLOUDY    43  34  70 S8        30.01F
JOHN DAY       MOCLDY    35  31  87 NE3       30.12S
MEACHAM        CLOUDY    33  31  92 CALM      30.04S
LA GRANDE      MOCLDY    33  24  69 S29G39    30.11F WCI  19
BAKER CITY     CLOUDY    32  21  64 E10       30.17S WCI  24
BURNS          CLOUDY    23  21  92 W7        30.17F WCI  15
ROME             N/A     32  22  66 SE16      30.19S WCI  21
ONTARIO        CLOUDY    33  28  81 CALM      30.27S
$$




USA.gov is the U.S. government's official web portal to all federal, state and local government web resources and services.